www.pogodaiklimat.ru

Погода и климат >> Архив погоды >> Мексика >> Hermosillo la Magna


ПОГОДА в Hermosillo la Magna

  • Прогноз погоды в Hermosillo la Magna
  • Монитор погоды в Hermosillo la Magna
  • Климат города

АРХИВ ПОГОДЫ в Hermosillo la Magna

Время (UTC), дата Ветер
(напр.,м/с)
 
Видим.   Явления Облачность Т
(С)
Тd
(С)
f
(%)
Тe
(С)
Тes
(С)
Комфортность P
(гПа)
Po
(гПа)
Тmin
(С)
Tmax
(С)
R
(мм)
R24
(мм)
S
(см)
03 15.10 З 4 н/о н/о +32.2 +12.1 29 +32 +32 жарко 1011.2 987.4
06 15.10 З 1 н/о н/о +27.9 +9.5 32 +28 +28 жарко 1012.6 988.4 +22.6 +40.4
09 15.10 СВ 1 н/о н/о +25.1 +10.7 40 +26 +26 жарко 1012.9 988.6
12 15.10 В 1 н/о н/о +21.8 +10.2 48 +24 +24 комфорт 1013.7 989.1 +21.8 +40.4
15 15.10 В 2 н/о н/о +24.9 +7.9 34 +25 +25 комфорт 1015.1 990.6
18 15.10 В 2 н/о н/о +37.1 +12.8 23 +37 +37 очень
жарко
1013.9 990.7 +21.1 +37.5
21 15.10 СВ 2 н/о н/о +40.7 +12.3 19 +40 +40 очень
жарко
1010.7 987.5
00 16.10 З 1 н/о н/о +40.9 +11.8 18 +40 +40 очень
жарко
1009.1 986.1 +21.1 +42.2
03 16.10 З 3 н/о н/о +32.6 +11.3 27 +32 +32 жарко 1012.1 988.3
06 16.10 СВ 1 н/о н/о +28.4 +12.3 37 +30 +30 жарко 1013.7 989.6 +21.1 +42.2
09 16.10 В 2 н/о н/о +26.7 +12.7 42 +28 +28 жарко 1013.6 989.3
12 16.10 В 3 н/о н/о +29.2 +12.2 35 +30 +30 жарко 1012.8 988.8 +26.4 +42.2
15 16.10 СВ 4 н/о н/о +31.2 +11.6 30 +32 +32 жарко 1014.2 990.3
18 16.10 В 2 н/о н/о +39.5 +11.0 18 +38 +38 очень
жарко
1013.3 990.1 +26.4 +39.5
21 16.10 В 2 н/о н/о +42.0 +10.5 15 +40 +40 очень
жарко
1010.1 987.1
00 17.10 З 2 н/о н/о +40.4 +9.9 16 +39 +39 очень
жарко
1009.3 986.2 +26.4 +42.9
03 17.10 З 3 н/о н/о +33.6 +11.4 26 +33 +33 жарко 1011.4 987.7
06 17.10 З 2 н/о н/о +29.3 +10.2 31 +29 +29 жарко 1012.9 988.8 +26.4 +42.9
09 17.10 З 1 н/о н/о +26.8 +11.1 37 +28 +28 жарко 1012.8 988.5
12 17.10 В 2 н/о н/о +24.9 +11.2 42 +26 +26 жарко 1012.9 988.5 +24.7 +42.9
15 17.10 В 1 н/о н/о +28.0 +10.8 34 +29 +29 жарко 1014.0 989.8
18 17.10 З 1 н/о н/о +38.3 +11.5 20 +37 +37 очень
жарко
1013.2 989.8 +22.6 +38.3
21 17.10 З 3 н/о н/о +39.5 +10.3 17 +38 +38 очень
жарко
1010.1 986.9
00 18.10 З 3 н/о н/о +36.9 +8.3 18 +35 +35 очень
жарко
1009.3 985.9 +22.6 +40.1
03 18.10 З 3 н/о н/о +32.5 +10.3 26 +32 +32 жарко 1010.7 986.9
06 18.10 З 2 н/о н/о +30.0 +6.8 23 +29 +29 жарко 1011.3 987.3 +22.6 +40.1
09 18.10 штиль 0 н/о н/о +24.4 +9.2 38 +25 +25 комфорт 1011.5 987.1
12 18.10 В 2 н/о н/о +22.5 +9.2 43 +24 +24 комфорт 1011.5 986.9 +22.5 +40.1
15 18.10 В 2 н/о н/о +23.2 +9.2 41 +25 +25 комфорт 1013.0 988.5
18 18.10 Ю 1 н/о н/о +37.2 +7.5 16 +35 +35 очень
жарко
1012.0 988.6 +21.7 +37.2
21 18.10 З 3 н/о н/о +39.8 +1.0 9 +36 +36 очень
жарко
1009.0 985.9
00 19.10 З 3 н/о н/о +37.7 +1.0 10 +34 +34 очень
жарко
1008.1 984.8 +21.7 +40.3
03 19.10 З 2 н/о н/о +30.6 +2.2 16 +28 +28 жарко 1009.7 985.8
12 19.10 В 2 н/о н/о +18.0 +4.1 40 +19 +19 1009.9 985.0 +17.9 +40.3
15 19.10 В 2 н/о н/о +20.0 +6.0 40 +21 +21 комфорт 1011.0 986.2
18 19.10 В 2 н/о н/о +33.5 +4.5 16 +31 +31 жарко 1009.7 986.1 +17.2 +33.5
21 19.10 З 2 н/о н/о +39.1 +4.0 12 +36 +36 очень
жарко
1006.6 983.7
00 20.10 З 2 н/о н/о +37.0 +3.8 13 +34 +34 очень
жарко
1005.9 982.6 +17.2 +40.0
03 20.10 З 2 н/о н/о +29.9 +8.2 26 +29 +29 жарко 1008.0 984.1
06 20.10 З 1 н/о н/о +25.3 +9.6 37 +26 +26 жарко 1009.7 985.4 +17.2 +40.0
09 20.10 СВ 2 н/о н/о +23.4 +8.4 38 +25 +25 комфорт 1009.4 985.0
12 20.10 СВ 3 н/о н/о +19.7 +8.3 48 +21 +21 комфорт 1009.3 984.6 +19.5 +40.0
15 20.10 В 2 н/о н/о +21.2 +7.9 42 +22 +22 комфорт 1010.5 985.9
18 20.10 Ю 2 н/о н/о +33.5 +12.5 28 +34 +34 очень
жарко
1010.2 986.5 +17.8 +34.2
21 20.10 ЮЗ 4 н/о н/о +36.1 +12.0 23 +36 +36 очень
жарко
1007.3 983.9
00 21.10 ЮЗ 4 н/о н/о +33.0 +13.7 31 +34 +34 очень
жарко
1007.1 983.5 +17.8 +36.7
03 21.10 З 3 н/о н/о +27.8 +12.6 39 +29 +29 жарко 1008.2 984.1
06 21.10 З 1 н/о н/о +23.7 +12.8 50 +26 +26 жарко 1010.2 985.7 +17.8 +36.7
09 21.10 СВ 1 н/о н/о +20.7 +13.1 62 +24 +24 комфорт 1010.6 985.9
12 21.10 СВ 2 н/о н/о +19.8 +12.9 64 +22 +22 комфорт 1010.1 985.4 +17.6 +36.7
15 21.10 ЮВ 1 н/о н/о +21.9 +11.6 52 +24 +24 комфорт 1013.1 988.4
18 21.10 В 2 н/о н/о +31.7 +12.5 31 +32 +32 жарко 1012.7 988.9 +16.9 +31.7
21 21.10 З 2 н/о н/о +34.5 +10.3 23 +34 +34 очень
жарко
1010.5 986.9

 

Местоположение метеостанции Hermosillo la Magna (Мексика): широта 29.08 долгота -110.95 высота над уровнем моря 210 м.

В архиве по умолчанию представлена погода в Hermosillo la Magna за последнюю неделю. Архивные данные за месяц целиком и за предыдущие месяцы, начиная с января 2011 года, Вы можете получить, выбрав интересующий диапазон дат из раскрывающегося списка и нажав кнопку "Ввод!".

Внимание! Время в таблицах - всемирное. Для получения местного времени необходимо прибавить поправку, которая в Hermosillo la Magna равна -7 ч.

Смотрите также архив погоды в соседних городах и на ближайших метеорологических станциях:

Погода в Hermosillo (Мексика) (10 км)
Погода в Empalme (Мексика) (128 км)
Погода в Guaymas Upper Air Site (Мексика) (129 км)
Погода в Pilares de Nacoz (Мексика) (189 км)
Погода в Altar Son (Мексика) (201 км)
Погода в Ciudad Obregon (Мексика) (218 км)
Погода в Santa Rosalia (Мексика) (237 км)
Погода в Temosachic (Мексика) (307 км)
Погода в Nueva Casas Grandes (Мексика) (328 км)
Погода в Loreto (Мексика) (342 км)

Пояснения к столбцам:

Ветер - указаны скорость ветра в м/с - средняя за 10 мин, порывы в срок и между сроками (в фигурных скобках) и направление, откуда дует ветер: С - северный, СВ - северо-восточный, В - восточный, ЮВ - юго-восточный, Ю - южный, ЮЗ - юго-западный, З - западный, СЗ - северо-западный.
Видимость - горизонтальная дальность видимости в метрах или километрах. При видимости от 1 до 10 км при отсутствии осадков обычно наблюдается дымка, при ухудшении видимости до 1 км и менее - туман. В сухую погоду видимость может ухудшаться дымом, пылью или мглою.
Явления - указаны атмосферные явления, наблюдавшиеся в срок или в последний час перед сроком; фигурными скобками обозначены явления, наблюдавшиеся между сроками (за 1-3 часа до срока); квадратными скобками обозначены град или гололедные отложения с указанием их диаметра в мм.
Облачность - указаны через наклонную черту общая и нижняя облачность в баллах и высота нижней границы облаков в метрах; квадратными скобками обозначены формы облаков: Ci - перистые, Cs - перисто-слоистые, Cc - перисто-кучевые, Ac - высококучевые, As - высокослоистые, Sc - слоисто-кучевые, Ns - слоисто-дождевые, Cu - кучевые, Cb - кучево-дождевые. Подробнее классификацию облаков см. в Атласе облаков (PDF).
T - Температура воздуха - температура, измеренная на высоте 2 м над землей.
Td - Температура точки росы - температура, при понижении до которой содержащийся в воздухе водяной пар достигнет насыщения.
f - Относительная влажность воздуха - влажноcть воздуха, измеренная на высоте 2 м над землей.
Te - Эффективная температура - температура, которую ощущает одетый по сезону человек в тени. Характеристика душности погоды. При расчете учитывается влияние влажности воздуха и скорости ветра на теплоощущения человека.
Tes - Эффективная температура на солнце - температура, которую ощущает человек, с поправкой на солнечный нагрев. Характеристика знойности погоды. Зависит от высоты солнца над горизонтом, облачности и скорости ветра. Ночью, в пасмурную погоду, а также при ветре 12 м/с и более поправка равна нулю.
P - Атмосферное давление - приведенное к уровню моря атмосферное давление.
Po - Атмосферное давление - измеренное на уровне метеостанции атмосферное давление.
Tmin - Минимальная температура - минимум температуры воздуха на высоте 2 м над землей.
Tmax - Максимальная температура - максимум температуры воздуха на высоте 2 м над землей.
R - Количество осадков - Количество выпавших осадков за период времени, мм. При наведении курсора мыши на число - период времени, за который выпало указанное количество осадков.
R24 - Количество осадков - Количество выпавших осадков за 24 часа, мм.
S - Снежный покров - Высота снежного покрова, см. При наведении курсора мыши на число - состояние снежного покрова и степень покрытия местности в баллах.